Year,Month,Day,Hour,Minute,Value (Times are PST for temperature in C)
2009,07,26,00,00,19.40
2009,07,26,00,01,19.40
2009,07,26,00,02,19.40
2009,07,26,00,03,19.40
2009,07,26,00,04,19.30
2009,07,26,00,05,19.30
2009,07,26,00,06,19.30
2009,07,26,00,07,19.30
2009,07,26,00,08,19.30
2009,07,26,00,09,19.30
2009,07,26,00,10,19.20
2009,07,26,00,11,19.20
2009,07,26,00,12,19.20
2009,07,26,00,13,19.10
2009,07,26,00,14,19.10
2009,07,26,00,15,19.00
2009,07,26,00,16,18.90
2009,07,26,00,17,18.90
2009,07,26,00,18,18.90
2009,07,26,00,19,18.80
2009,07,26,00,20,18.80
2009,07,26,00,21,18.80
2009,07,26,00,22,18.80
2009,07,26,00,23,18.70
2009,07,26,00,24,18.70
2009,07,26,00,25,18.70
2009,07,26,00,26,18.70
2009,07,26,00,27,18.60
2009,07,26,00,28,18.60
2009,07,26,00,29,18.60
2009,07,26,00,30,18.60
2009,07,26,00,31,18.60
2009,07,26,00,32,18.60
2009,07,26,00,33,18.60
2009,07,26,00,34,18.60
2009,07,26,00,35,18.60
2009,07,26,00,36,18.60
2009,07,26,00,37,18.60
2009,07,26,00,38,18.60
2009,07,26,00,39,18.60
2009,07,26,00,40,18.60
2009,07,26,00,41,18.70
2009,07,26,00,42,18.70
2009,07,26,00,43,18.70
2009,07,26,00,44,18.70
2009,07,26,00,45,18.70
2009,07,26,00,46,18.70
2009,07,26,00,47,18.70
2009,07,26,00,48,18.70
2009,07,26,00,49,18.80
2009,07,26,00,50,18.80
2009,07,26,00,51,18.80
2009,07,26,00,52,18.80
2009,07,26,00,53,18.80
2009,07,26,00,54,18.80
2009,07,26,00,55,18.80
2009,07,26,00,56,18.80
2009,07,26,00,57,18.80
2009,07,26,00,58,18.90
2009,07,26,00,59,18.90
2009,07,26,01,00,18.90
2009,07,26,01,01,19.00
2009,07,26,01,02,19.00
2009,07,26,01,03,19.10
2009,07,26,01,04,19.10
2009,07,26,01,05,19.10
2009,07,26,01,06,19.20
2009,07,26,01,07,19.20
2009,07,26,01,08,19.20
2009,07,26,01,09,19.20
2009,07,26,01,10,19.20
2009,07,26,01,11,19.20
2009,07,26,01,12,19.20
2009,07,26,01,13,19.20
2009,07,26,01,14,19.20
2009,07,26,01,15,19.20
2009,07,26,01,16,19.20
2009,07,26,01,17,19.20
2009,07,26,01,18,19.20
2009,07,26,01,19,19.30
2009,07,26,01,20,19.30
2009,07,26,01,21,19.30
2009,07,26,01,22,19.20
2009,07,26,01,23,19.20
2009,07,26,01,24,19.20
2009,07,26,01,25,19.20
2009,07,26,01,26,19.20
2009,07,26,01,27,19.20
2009,07,26,01,28,19.20
2009,07,26,01,29,19.10
2009,07,26,01,30,19.10
2009,07,26,01,31,19.10
2009,07,26,01,32,19.10
2009,07,26,01,33,19.10
2009,07,26,01,34,19.10
2009,07,26,01,35,19.10
2009,07,26,01,36,19.10
2009,07,26,01,37,19.10
2009,07,26,01,38,19.10
2009,07,26,01,39,19.00
2009,07,26,01,40,19.00
2009,07,26,01,41,19.00
2009,07,26,01,42,19.00
2009,07,26,01,43,19.00
2009,07,26,01,44,19.10
2009,07,26,01,45,19.10
2009,07,26,01,46,19.10
2009,07,26,01,47,19.10
2009,07,26,01,48,19.10
2009,07,26,01,49,19.10
2009,07,26,01,50,19.10
2009,07,26,01,51,19.10
2009,07,26,01,52,19.10
2009,07,26,01,53,19.10
2009,07,26,01,54,19.10
2009,07,26,01,55,19.10
2009,07,26,01,56,19.10
2009,07,26,01,57,19.10
2009,07,26,01,58,19.10
2009,07,26,01,59,19.10
2009,07,26,02,00,19.10
2009,07,26,02,01,19.10
2009,07,26,02,02,19.10
2009,07,26,02,03,19.10
2009,07,26,02,04,19.10
2009,07,26,02,05,19.10
2009,07,26,02,06,19.10
2009,07,26,02,07,19.10
2009,07,26,02,08,19.10
2009,07,26,02,09,19.10
2009,07,26,02,10,19.10
2009,07,26,02,11,19.10
2009,07,26,02,12,19.10
2009,07,26,02,13,19.10
2009,07,26,02,14,19.10
2009,07,26,02,15,19.00
2009,07,26,02,16,19.10
2009,07,26,02,17,19.00
2009,07,26,02,18,19.00
2009,07,26,02,19,19.00
2009,07,26,02,20,19.00
2009,07,26,02,21,19.00
2009,07,26,02,22,19.00
2009,07,26,02,23,19.00
2009,07,26,02,24,19.10
2009,07,26,02,25,19.00
2009,07,26,02,26,19.00
2009,07,26,02,27,19.00
2009,07,26,02,28,19.00
2009,07,26,02,29,19.00
2009,07,26,02,30,19.00
2009,07,26,02,31,18.90
2009,07,26,02,32,18.90
2009,07,26,02,33,18.90
2009,07,26,02,34,18.90
2009,07,26,02,35,18.90
2009,07,26,02,36,18.90
2009,07,26,02,37,18.90
2009,07,26,02,38,18.90
2009,07,26,02,39,18.90
2009,07,26,02,40,18.90
2009,07,26,02,41,18.90
2009,07,26,02,42,18.90
2009,07,26,02,43,18.90
2009,07,26,02,44,18.80
2009,07,26,02,45,18.80
2009,07,26,02,46,18.80
2009,07,26,02,47,18.80
2009,07,26,02,48,18.80
2009,07,26,02,49,18.80
2009,07,26,02,50,18.80
2009,07,26,02,51,18.80
2009,07,26,02,52,18.80
2009,07,26,02,53,18.80
2009,07,26,02,54,18.80
2009,07,26,02,55,18.80
2009,07,26,02,56,18.80
2009,07,26,02,57,18.80
2009,07,26,02,58,18.80
2009,07,26,02,59,18.80
2009,07,26,03,00,18.80
2009,07,26,03,01,18.80
2009,07,26,03,02,18.80
2009,07,26,03,03,18.80
2009,07,26,03,04,18.80
2009,07,26,03,05,18.80
2009,07,26,03,06,18.80
2009,07,26,03,07,18.80
2009,07,26,03,08,18.80
2009,07,26,03,09,18.80
2009,07,26,03,10,18.80
2009,07,26,03,11,18.80
2009,07,26,03,12,18.70
2009,07,26,03,13,18.70
2009,07,26,03,14,18.70
2009,07,26,03,15,18.70
2009,07,26,03,16,18.70
2009,07,26,03,17,18.70
2009,07,26,03,18,18.70
2009,07,26,03,19,18.70
2009,07,26,03,20,18.70
2009,07,26,03,21,18.80
2009,07,26,03,22,18.80
2009,07,26,03,23,18.80
2009,07,26,03,24,18.80
2009,07,26,03,25,18.80
2009,07,26,03,26,18.80
2009,07,26,03,27,18.80
2009,07,26,03,28,18.80
2009,07,26,03,29,18.80
2009,07,26,03,30,18.80
2009,07,26,03,31,18.80
2009,07,26,03,32,18.80
2009,07,26,03,33,18.90
2009,07,26,03,34,18.90
2009,07,26,03,35,18.90
2009,07,26,03,36,19.00
2009,07,26,03,37,19.10
2009,07,26,03,38,19.20
2009,07,26,03,39,19.20
2009,07,26,03,40,19.30
2009,07,26,03,41,19.40
2009,07,26,03,42,19.50
2009,07,26,03,43,19.50
2009,07,26,03,44,19.60
2009,07,26,03,45,19.60
2009,07,26,03,46,19.60
2009,07,26,03,47,19.60
2009,07,26,03,48,19.60
2009,07,26,03,49,19.60
2009,07,26,03,50,19.60
2009,07,26,03,51,19.60
2009,07,26,03,52,19.50
2009,07,26,03,53,19.50
2009,07,26,03,54,19.40
2009,07,26,03,55,19.40
2009,07,26,03,56,19.40
2009,07,26,03,57,19.30
2009,07,26,03,58,19.30
2009,07,26,03,59,19.30
2009,07,26,04,00,19.20
2009,07,26,04,01,19.20
2009,07,26,04,02,19.20
2009,07,26,04,03,19.10
2009,07,26,04,04,19.10
2009,07,26,04,05,19.10
2009,07,26,04,06,19.10
2009,07,26,04,07,19.00
2009,07,26,04,08,19.00
2009,07,26,04,09,18.90
2009,07,26,04,10,18.90
2009,07,26,04,11,18.90
2009,07,26,04,12,18.90
2009,07,26,04,13,18.90
2009,07,26,04,14,18.80
2009,07,26,04,15,18.80
2009,07,26,04,16,18.80
2009,07,26,04,17,18.80
2009,07,26,04,18,18.80
2009,07,26,04,19,18.80
2009,07,26,04,20,18.70
2009,07,26,04,21,18.70
2009,07,26,04,22,18.70
2009,07,26,04,23,18.70
2009,07,26,04,24,18.70
2009,07,26,04,25,18.60
2009,07,26,04,26,18.60
2009,07,26,04,27,18.50
2009,07,26,04,28,18.50
2009,07,26,04,29,18.40
2009,07,26,04,30,18.40
2009,07,26,04,31,18.40
2009,07,26,04,32,18.40
2009,07,26,04,33,18.40
2009,07,26,04,34,18.40
2009,07,26,04,35,18.30
2009,07,26,04,36,18.30
2009,07,26,04,37,18.30
2009,07,26,04,38,18.30
2009,07,26,04,39,18.30
2009,07,26,04,40,18.30
2009,07,26,04,41,18.30
2009,07,26,04,42,18.30
2009,07,26,04,43,18.30
2009,07,26,04,44,18.30
2009,07,26,04,45,18.30
2009,07,26,04,46,18.30
2009,07,26,04,47,18.30
2009,07,26,04,48,18.30
2009,07,26,04,49,18.30
2009,07,26,04,50,18.30
2009,07,26,04,51,18.30
2009,07,26,04,52,18.30
2009,07,26,04,53,18.30
2009,07,26,04,54,18.30
2009,07,26,04,55,18.30
2009,07,26,04,56,18.20
2009,07,26,04,57,18.20
2009,07,26,04,58,18.20
2009,07,26,04,59,18.20
2009,07,26,05,00,18.20
2009,07,26,05,01,18.20
2009,07,26,05,02,18.20
2009,07,26,05,03,18.20
2009,07,26,05,04,18.20
2009,07,26,05,05,18.20
2009,07,26,05,06,18.20
2009,07,26,05,07,18.20
2009,07,26,05,08,18.20
2009,07,26,05,09,18.20
2009,07,26,05,10,18.20
2009,07,26,05,11,18.20
2009,07,26,05,12,18.10
2009,07,26,05,13,18.10
2009,07,26,05,14,18.10
2009,07,26,05,15,18.10
2009,07,26,05,16,18.10
2009,07,26,05,17,18.10
2009,07,26,05,18,18.10
2009,07,26,05,19,18.10
2009,07,26,05,20,18.10
2009,07,26,05,21,18.10
2009,07,26,05,22,18.10
2009,07,26,05,23,18.20
2009,07,26,05,24,18.20
2009,07,26,05,25,18.20
2009,07,26,05,26,18.20
2009,07,26,05,27,18.10
2009,07,26,05,28,18.10
2009,07,26,05,29,18.10
2009,07,26,05,30,18.10
2009,07,26,05,31,18.10
2009,07,26,05,32,18.10
2009,07,26,05,33,18.10
2009,07,26,05,34,18.10
2009,07,26,05,35,18.10
2009,07,26,05,36,18.10
2009,07,26,05,37,18.10
2009,07,26,05,38,18.10
2009,07,26,05,39,18.10
2009,07,26,05,40,18.10
2009,07,26,05,41,18.10
2009,07,26,05,42,18.10
2009,07,26,05,43,18.10
2009,07,26,05,44,18.10
2009,07,26,05,45,18.10
2009,07,26,05,46,18.10
2009,07,26,05,47,18.10
2009,07,26,05,48,18.10
2009,07,26,05,49,18.10
2009,07,26,05,50,18.10
2009,07,26,05,51,18.10
2009,07,26,05,52,18.20
2009,07,26,05,53,18.20
2009,07,26,05,54,18.20
2009,07,26,05,55,18.20
2009,07,26,05,56,18.20
2009,07,26,05,57,18.20
2009,07,26,05,58,18.20
2009,07,26,05,59,18.20
2009,07,26,06,00,18.20
2009,07,26,06,01,18.20
2009,07,26,06,02,18.20
2009,07,26,06,03,18.20
2009,07,26,06,04,18.20
2009,07,26,06,05,18.20
2009,07,26,06,06,18.20
2009,07,26,06,07,18.20
2009,07,26,06,08,18.20
2009,07,26,06,09,18.20
2009,07,26,06,10,18.20
2009,07,26,06,11,18.20
2009,07,26,06,12,18.20
2009,07,26,06,13,18.20
2009,07,26,06,14,18.30
2009,07,26,06,15,18.30
2009,07,26,06,16,18.30
2009,07,26,06,17,18.30
2009,07,26,06,18,18.30
2009,07,26,06,19,18.30
2009,07,26,06,20,18.30
2009,07,26,06,21,18.30
2009,07,26,06,22,18.30
2009,07,26,06,23,18.30
2009,07,26,06,24,18.30
2009,07,26,06,25,18.30
2009,07,26,06,26,18.30
2009,07,26,06,27,18.30
2009,07,26,06,28,18.30
2009,07,26,06,29,18.40
2009,07,26,06,30,18.40
2009,07,26,06,31,18.40
2009,07,26,06,32,18.40
2009,07,26,06,33,18.40
2009,07,26,06,34,18.40
2009,07,26,06,35,18.40
2009,07,26,06,36,18.40
2009,07,26,06,37,18.50
2009,07,26,06,38,18.50
2009,07,26,06,39,18.60
2009,07,26,06,40,18.60
2009,07,26,06,41,18.60
2009,07,26,06,42,18.70
2009,07,26,06,43,18.70
2009,07,26,06,44,18.70
2009,07,26,06,45,18.70
2009,07,26,06,46,18.80
2009,07,26,06,47,18.80
2009,07,26,06,48,18.80
2009,07,26,06,49,18.80
2009,07,26,06,50,18.80
2009,07,26,06,51,18.90
2009,07,26,06,52,18.90
2009,07,26,06,53,18.90
2009,07,26,06,54,19.00
2009,07,26,06,55,19.00
2009,07,26,06,56,19.10
2009,07,26,06,57,19.10
2009,07,26,06,58,19.20
2009,07,26,06,59,19.20
2009,07,26,07,00,19.20
2009,07,26,07,01,19.30
2009,07,26,07,02,19.30
2009,07,26,07,03,19.40
2009,07,26,07,04,19.40
2009,07,26,07,05,19.50
2009,07,26,07,06,19.50
2009,07,26,07,07,19.60
2009,07,26,07,08,19.60
2009,07,26,07,09,19.70
2009,07,26,07,10,19.70
2009,07,26,07,11,19.80
2009,07,26,07,12,19.80
2009,07,26,07,13,19.80
2009,07,26,07,14,19.90
2009,07,26,07,15,19.90
2009,07,26,07,16,20.00
2009,07,26,07,17,20.00
2009,07,26,07,18,20.10
2009,07,26,07,19,20.10
2009,07,26,07,20,20.10
2009,07,26,07,21,20.20
2009,07,26,07,22,20.10
2009,07,26,07,23,20.10
2009,07,26,07,24,20.10
2009,07,26,07,25,20.10
2009,07,26,07,26,20.20
2009,07,26,07,27,20.20
2009,07,26,07,28,20.20
2009,07,26,07,29,20.10
2009,07,26,07,30,20.10
2009,07,26,07,31,20.10
2009,07,26,07,32,20.10
2009,07,26,07,33,20.00
2009,07,26,07,34,20.00
2009,07,26,07,35,19.90
2009,07,26,07,36,19.90
2009,07,26,07,37,19.90
2009,07,26,07,38,19.90
2009,07,26,07,39,19.90
2009,07,26,07,40,20.00
2009,07,26,07,41,20.00
2009,07,26,07,42,20.00
2009,07,26,07,43,20.10
2009,07,26,07,44,20.10
2009,07,26,07,45,20.10
2009,07,26,07,46,20.20
2009,07,26,07,47,20.20
2009,07,26,07,48,20.30
2009,07,26,07,49,20.30
2009,07,26,07,50,20.40
2009,07,26,07,51,20.40
2009,07,26,07,52,20.40
2009,07,26,07,53,20.50
2009,07,26,07,54,20.50
2009,07,26,07,55,20.60
2009,07,26,07,56,20.70
2009,07,26,07,57,20.80
2009,07,26,07,58,20.80
2009,07,26,07,59,20.90
2009,07,26,08,00,21.00
2009,07,26,08,01,21.10
2009,07,26,08,02,21.20
2009,07,26,08,03,21.30
2009,07,26,08,04,21.30
2009,07,26,08,05,21.40
2009,07,26,08,06,21.40
2009,07,26,08,07,21.50
2009,07,26,08,08,21.50
2009,07,26,08,09,21.60
2009,07,26,08,10,21.70
2009,07,26,08,11,21.80
2009,07,26,08,12,21.80
2009,07,26,08,13,21.80
2009,07,26,08,14,21.80
2009,07,26,08,15,21.80
2009,07,26,08,16,21.80
2009,07,26,08,17,21.80
2009,07,26,08,18,21.70
2009,07,26,08,19,21.70
2009,07,26,08,20,21.70
2009,07,26,08,21,21.70
2009,07,26,08,22,21.70
2009,07,26,08,23,21.70
2009,07,26,08,24,21.70
2009,07,26,08,25,21.80
2009,07,26,08,26,21.90
2009,07,26,08,27,22.00
2009,07,26,08,28,22.10
2009,07,26,08,29,22.10
2009,07,26,08,30,22.20
2009,07,26,08,31,22.10
2009,07,26,08,32,22.10
2009,07,26,08,33,22.10
2009,07,26,08,34,22.00
2009,07,26,08,35,21.90
2009,07,26,08,36,21.90
2009,07,26,08,37,21.80
2009,07,26,08,38,21.80
2009,07,26,08,39,21.70
2009,07,26,08,40,21.70
2009,07,26,08,41,21.60
2009,07,26,08,42,21.60
2009,07,26,08,43,21.60
2009,07,26,08,44,21.50
2009,07,26,08,45,21.50
2009,07,26,08,46,21.40
2009,07,26,08,47,21.20
2009,07,26,08,48,21.10
2009,07,26,08,49,21.10
2009,07,26,08,50,21.00
2009,07,26,08,51,20.80
2009,07,26,08,52,20.70
2009,07,26,08,53,20.50
2009,07,26,08,54,20.50
2009,07,26,08,55,20.40
2009,07,26,08,56,20.30
2009,07,26,08,57,20.30
2009,07,26,08,58,20.30
2009,07,26,08,59,20.30
2009,07,26,09,00,20.30
2009,07,26,09,01,20.20
2009,07,26,09,02,20.20
2009,07,26,09,03,20.20
2009,07,26,09,04,20.20
2009,07,26,09,05,20.30
2009,07,26,09,06,20.30
2009,07,26,09,07,20.40
2009,07,26,09,08,20.50
2009,07,26,09,09,20.50
2009,07,26,09,10,20.60
2009,07,26,09,11,20.70
2009,07,26,09,12,20.70
2009,07,26,09,13,20.80
2009,07,26,09,14,20.80
2009,07,26,09,15,20.80
2009,07,26,09,16,20.90
2009,07,26,09,17,20.90
2009,07,26,09,18,21.00
2009,07,26,09,19,21.10
2009,07,26,09,20,21.20
2009,07,26,09,21,21.20
2009,07,26,09,22,21.20
2009,07,26,09,23,21.30
2009,07,26,09,24,21.30
2009,07,26,09,25,21.40
2009,07,26,09,26,21.50
2009,07,26,09,27,21.60
2009,07,26,09,28,21.70
2009,07,26,09,29,21.70
2009,07,26,09,30,21.80
2009,07,26,09,31,21.80
2009,07,26,09,32,21.80
2009,07,26,09,33,21.80
2009,07,26,09,34,21.80
2009,07,26,09,35,21.80
2009,07,26,09,36,21.80
2009,07,26,09,37,21.80
2009,07,26,09,38,21.90
2009,07,26,09,39,21.90
2009,07,26,09,40,22.00
2009,07,26,09,41,22.10
2009,07,26,09,42,22.20
2009,07,26,09,43,22.30
2009,07,26,09,44,22.40
2009,07,26,09,45,22.40
2009,07,26,09,46,22.40
2009,07,26,09,47,22.40
2009,07,26,09,48,22.40
2009,07,26,09,49,22.30
2009,07,26,09,50,22.30
2009,07,26,09,51,22.30
2009,07,26,09,52,22.30
2009,07,26,09,53,22.40
2009,07,26,09,54,22.50
2009,07,26,09,55,22.60
2009,07,26,09,56,22.70
2009,07,26,09,57,22.80
2009,07,26,09,58,22.90
2009,07,26,09,59,22.90
2009,07,26,10,00,23.00
2009,07,26,10,01,22.90
2009,07,26,10,02,22.90
2009,07,26,10,03,22.90
2009,07,26,10,04,23.00
2009,07,26,10,05,23.00
2009,07,26,10,06,23.00
2009,07,26,10,07,22.90
2009,07,26,10,08,22.90
2009,07,26,10,09,22.90
2009,07,26,10,10,22.80
2009,07,26,10,11,22.80
2009,07,26,10,12,22.70
2009,07,26,10,13,22.70
2009,07,26,10,14,22.80
2009,07,26,10,15,22.80
2009,07,26,10,16,22.70
2009,07,26,10,17,22.60
2009,07,26,10,18,22.40
2009,07,26,10,19,22.30
2009,07,26,10,20,22.30
2009,07,26,10,21,22.30
2009,07,26,10,22,22.40
2009,07,26,10,23,22.50
2009,07,26,10,24,22.60
2009,07,26,10,25,22.70
2009,07,26,10,26,22.80
2009,07,26,10,27,22.80
2009,07,26,10,28,22.70
2009,07,26,10,29,22.70
2009,07,26,10,30,22.70
2009,07,26,10,31,22.70
2009,07,26,10,32,22.60
2009,07,26,10,33,22.60
2009,07,26,10,34,22.60
2009,07,26,10,35,22.70
2009,07,26,10,36,22.80
2009,07,26,10,37,22.80
2009,07,26,10,38,22.90
2009,07,26,10,39,22.90
2009,07,26,10,40,22.90
2009,07,26,10,41,23.00
2009,07,26,10,42,23.10
2009,07,26,10,43,23.20
2009,07,26,10,44,23.20
2009,07,26,10,45,23.20
2009,07,26,10,46,23.20
2009,07,26,10,47,23.20
2009,07,26,10,48,23.30
2009,07,26,10,49,23.30
2009,07,26,10,50,23.20
2009,07,26,10,51,23.20
2009,07,26,10,52,23.30
2009,07,26,10,53,23.30
2009,07,26,10,54,23.30
2009,07,26,10,55,23.40
2009,07,26,10,56,23.50
2009,07,26,10,57,23.50
2009,07,26,10,58,23.50
2009,07,26,10,59,23.50
2009,07,26,11,00,23.40
2009,07,26,11,01,23.50
2009,07,26,11,02,23.50
2009,07,26,11,03,23.50
2009,07,26,11,04,23.50
2009,07,26,11,05,23.40
2009,07,26,11,06,23.50
2009,07,26,11,07,23.50
2009,07,26,11,08,23.50
2009,07,26,11,09,23.50
2009,07,26,11,10,23.60
2009,07,26,11,11,23.60
2009,07,26,11,12,23.70
2009,07,26,11,13,23.80
2009,07,26,11,14,23.80
2009,07,26,11,15,23.90
2009,07,26,11,16,24.00
2009,07,26,11,17,24.00
2009,07,26,11,18,23.90
2009,07,26,11,19,23.80
2009,07,26,11,20,23.80
2009,07,26,11,21,23.80
2009,07,26,11,22,23.80
2009,07,26,11,23,23.80
2009,07,26,11,24,23.80
2009,07,26,11,25,23.80
2009,07,26,11,26,23.80
2009,07,26,11,27,23.80
2009,07,26,11,28,23.80
2009,07,26,11,29,23.90
2009,07,26,11,30,23.90
2009,07,26,11,31,23.90
2009,07,26,11,32,23.90
2009,07,26,11,33,23.90
2009,07,26,11,34,23.90
2009,07,26,11,35,23.80
2009,07,26,11,36,23.90
2009,07,26,11,37,23.90
2009,07,26,11,38,24.00
2009,07,26,11,39,24.10
2009,07,26,11,40,24.30
2009,07,26,11,41,24.40
2009,07,26,11,42,24.40
2009,07,26,11,43,24.40
2009,07,26,11,44,24.40
2009,07,26,11,45,24.30
2009,07,26,11,46,24.30
2009,07,26,11,47,24.40
2009,07,26,11,48,24.50
2009,07,26,11,49,24.50
2009,07,26,11,50,24.50
2009,07,26,11,51,24.60
2009,07,26,11,52,24.60
2009,07,26,11,53,24.70
2009,07,26,11,54,24.70
2009,07,26,11,55,24.80
2009,07,26,11,56,24.90
2009,07,26,11,57,24.90
2009,07,26,11,58,24.80
2009,07,26,11,59,24.60
2009,07,26,12,00,24.60
2009,07,26,12,01,24.60
2009,07,26,12,02,24.50
2009,07,26,12,03,24.50
2009,07,26,12,04,24.40
2009,07,26,12,05,24.40
2009,07,26,12,06,24.40
2009,07,26,12,07,24.30
2009,07,26,12,08,24.30
2009,07,26,12,09,24.30
2009,07,26,12,10,24.30
2009,07,26,12,11,24.40
2009,07,26,12,12,24.40
2009,07,26,12,13,24.50
2009,07,26,12,14,24.50
2009,07,26,12,15,24.50
2009,07,26,12,16,24.40
2009,07,26,12,17,24.40
2009,07,26,12,18,24.40
2009,07,26,12,19,24.50
2009,07,26,12,20,24.50
2009,07,26,12,21,24.70
2009,07,26,12,22,24.80
2009,07,26,12,23,24.90
2009,07,26,12,24,24.90
2009,07,26,12,25,25.00
2009,07,26,12,26,24.90
2009,07,26,12,27,24.80
2009,07,26,12,28,24.80
2009,07,26,12,29,24.70
2009,07,26,12,30,24.70
2009,07,26,12,31,24.70
2009,07,26,12,32,24.70
2009,07,26,12,33,24.70
2009,07,26,12,34,24.60
2009,07,26,12,35,24.40
2009,07,26,12,36,24.30
2009,07,26,12,37,24.30
2009,07,26,12,38,24.30
2009,07,26,12,39,24.20
2009,07,26,12,40,24.20
2009,07,26,12,41,24.20
2009,07,26,12,42,24.20
2009,07,26,12,43,24.10
2009,07,26,12,44,24.10
2009,07,26,12,45,24.20
2009,07,26,12,46,24.30
2009,07,26,12,47,24.40
2009,07,26,12,48,24.40
2009,07,26,12,49,24.50
2009,07,26,12,50,24.60
2009,07,26,12,51,24.60
2009,07,26,12,52,24.70
2009,07,26,12,53,24.70
2009,07,26,12,54,24.80
2009,07,26,12,55,24.80
2009,07,26,12,56,24.90
2009,07,26,12,57,24.90
2009,07,26,12,58,24.90
2009,07,26,12,59,24.90
2009,07,26,13,00,24.90
2009,07,26,13,01,24.90
2009,07,26,13,02,24.90
2009,07,26,13,03,25.00
2009,07,26,13,04,25.10
2009,07,26,13,05,25.00
2009,07,26,13,06,24.90
2009,07,26,13,07,24.90
2009,07,26,13,08,25.00
2009,07,26,13,09,24.90
2009,07,26,13,10,24.80
2009,07,26,13,11,24.70
2009,07,26,13,12,24.60
2009,07,26,13,13,24.50
2009,07,26,13,14,24.50
2009,07,26,13,15,24.50
2009,07,26,13,16,24.60
2009,07,26,13,17,24.70
2009,07,26,13,18,24.80
2009,07,26,13,19,24.90
2009,07,26,13,20,25.10
2009,07,26,13,21,25.20
2009,07,26,13,22,25.30
2009,07,26,13,23,25.40
2009,07,26,13,24,25.50
2009,07,26,13,25,25.50
2009,07,26,13,26,25.50
2009,07,26,13,27,25.40
2009,07,26,13,28,25.30
2009,07,26,13,29,25.30
2009,07,26,13,30,25.40
2009,07,26,13,31,25.40
2009,07,26,13,32,25.50
2009,07,26,13,33,25.50
2009,07,26,13,34,25.40
2009,07,26,13,35,25.40
2009,07,26,13,36,25.50
2009,07,26,13,37,25.60
2009,07,26,13,38,25.60
2009,07,26,13,39,25.70
2009,07,26,13,40,25.70
2009,07,26,13,41,25.70
2009,07,26,13,42,25.60
2009,07,26,13,43,25.40
2009,07,26,13,44,25.30
2009,07,26,13,45,25.20
2009,07,26,13,46,25.20
2009,07,26,13,47,25.10
2009,07,26,13,48,25.00
2009,07,26,13,49,25.00
2009,07,26,13,50,25.10
2009,07,26,13,51,25.10
2009,07,26,13,52,25.10
2009,07,26,13,53,25.10
2009,07,26,13,54,25.10
2009,07,26,13,55,25.10
2009,07,26,13,56,25.10
2009,07,26,13,57,25.20
2009,07,26,13,58,25.20
2009,07,26,13,59,25.10
2009,07,26,14,00,25.10
2009,07,26,14,01,25.20
2009,07,26,14,02,25.10
2009,07,26,14,03,25.10
2009,07,26,14,04,25.10
2009,07,26,14,05,25.20
2009,07,26,14,06,25.20
2009,07,26,14,07,25.20
2009,07,26,14,08,25.20
2009,07,26,14,09,25.20
2009,07,26,14,10,25.10
2009,07,26,14,11,25.00
2009,07,26,14,12,24.90
2009,07,26,14,13,24.90
2009,07,26,14,14,24.90
2009,07,26,14,15,25.00
2009,07,26,14,16,25.00
2009,07,26,14,17,25.10
2009,07,26,14,18,25.20
2009,07,26,14,19,25.20
2009,07,26,14,20,25.30
2009,07,26,14,21,25.40
2009,07,26,14,22,25.40
2009,07,26,14,23,25.40
2009,07,26,14,24,25.40
2009,07,26,14,25,25.30
2009,07,26,14,26,25.20
2009,07,26,14,27,25.20
2009,07,26,14,28,25.20
2009,07,26,14,29,25.20
2009,07,26,14,30,25.20
2009,07,26,14,31,25.20
2009,07,26,14,32,25.20
2009,07,26,14,33,25.20
2009,07,26,14,34,25.10
2009,07,26,14,35,25.00
2009,07,26,14,36,25.00
2009,07,26,14,37,25.00
2009,07,26,14,38,25.10
2009,07,26,14,39,25.10
2009,07,26,14,40,25.10
2009,07,26,14,41,25.20
2009,07,26,14,42,25.20
2009,07,26,14,43,25.20
2009,07,26,14,44,25.20
2009,07,26,14,45,25.20
2009,07,26,14,46,25.20
2009,07,26,14,47,25.40
2009,07,26,14,48,25.50
2009,07,26,14,49,25.60
2009,07,26,14,50,25.70
2009,07,26,14,51,25.80
2009,07,26,14,52,25.90
2009,07,26,14,53,26.10
2009,07,26,14,54,26.20
2009,07,26,14,55,26.30
2009,07,26,14,56,26.30
2009,07,26,14,57,26.20
2009,07,26,14,58,26.00
2009,07,26,14,59,25.90
2009,07,26,15,00,25.80
2009,07,26,15,01,25.80
2009,07,26,15,02,25.80
2009,07,26,15,03,25.80
2009,07,26,15,04,25.80
2009,07,26,15,05,25.80
2009,07,26,15,06,25.80
2009,07,26,15,07,25.90
2009,07,26,15,08,25.90
2009,07,26,15,09,26.00
2009,07,26,15,10,26.10
2009,07,26,15,11,26.20
2009,07,26,15,12,26.20
2009,07,26,15,13,26.20
2009,07,26,15,14,26.10
2009,07,26,15,15,26.00
2009,07,26,15,16,26.00
2009,07,26,15,17,26.00
2009,07,26,15,18,26.10
2009,07,26,15,19,26.20
2009,07,26,15,20,26.30
2009,07,26,15,21,26.30
2009,07,26,15,22,26.30
2009,07,26,15,23,26.30
2009,07,26,15,24,26.40
2009,07,26,15,25,26.40
2009,07,26,15,26,26.40
2009,07,26,15,27,26.30
2009,07,26,15,28,26.20
2009,07,26,15,29,26.10
2009,07,26,15,30,26.00
2009,07,26,15,31,25.80
2009,07,26,15,32,25.80
2009,07,26,15,33,25.60
2009,07,26,15,34,25.50
2009,07,26,15,35,25.40
2009,07,26,15,36,25.40
2009,07,26,15,37,25.30
2009,07,26,15,38,25.30
2009,07,26,15,39,25.30
2009,07,26,15,40,25.30
2009,07,26,15,41,25.30
2009,07,26,15,42,25.30
2009,07,26,15,43,25.40
2009,07,26,15,44,25.50
2009,07,26,15,45,25.60
2009,07,26,15,46,25.70
2009,07,26,15,47,25.80
2009,07,26,15,48,25.90
2009,07,26,15,49,25.90
2009,07,26,15,50,25.90
2009,07,26,15,51,25.80
2009,07,26,15,52,25.70
2009,07,26,15,53,25.50
2009,07,26,15,54,25.40
2009,07,26,15,55,25.40
2009,07,26,15,56,25.50
2009,07,26,15,57,25.50
2009,07,26,15,58,25.60
2009,07,26,15,59,25.60
2009,07,26,16,00,25.70
2009,07,26,16,01,25.80
2009,07,26,16,02,25.80
2009,07,26,16,03,25.80
2009,07,26,16,04,25.70
2009,07,26,16,05,25.60
2009,07,26,16,06,25.60
2009,07,26,16,07,25.60
2009,07,26,16,08,25.50
2009,07,26,16,09,25.50
2009,07,26,16,10,25.40
2009,07,26,16,11,25.40
2009,07,26,16,12,25.40
2009,07,26,16,13,25.40
2009,07,26,16,14,25.50
2009,07,26,16,15,25.60
2009,07,26,16,16,25.60
2009,07,26,16,17,25.60
2009,07,26,16,18,25.50
2009,07,26,16,19,25.40
2009,07,26,16,20,25.30
2009,07,26,16,21,25.20
2009,07,26,16,22,25.30
2009,07,26,16,23,25.30
2009,07,26,16,24,25.20
2009,07,26,16,25,25.20
2009,07,26,16,26,25.10
2009,07,26,16,27,25.10
2009,07,26,16,28,25.10
2009,07,26,16,29,25.10
2009,07,26,16,30,25.20
2009,07,26,16,31,25.20
2009,07,26,16,32,25.20
2009,07,26,16,33,25.20
2009,07,26,16,34,25.10
2009,07,26,16,35,25.10
2009,07,26,16,36,25.10
2009,07,26,16,37,25.20
2009,07,26,16,38,25.20
2009,07,26,16,39,25.20
2009,07,26,16,40,25.30
2009,07,26,16,41,25.40
2009,07,26,16,42,25.60
2009,07,26,16,43,25.60
2009,07,26,16,44,25.70
2009,07,26,16,45,25.70
2009,07,26,16,46,25.70
2009,07,26,16,47,25.70
2009,07,26,16,48,25.70
2009,07,26,16,49,25.80
2009,07,26,16,50,25.80
2009,07,26,16,51,25.90
2009,07,26,16,52,25.90
2009,07,26,16,53,25.90
2009,07,26,16,54,25.90
2009,07,26,16,55,25.90
2009,07,26,16,56,25.90
2009,07,26,16,57,25.80
2009,07,26,16,58,25.80
2009,07,26,16,59,25.80
2009,07,26,17,00,25.70
2009,07,26,17,01,25.70
2009,07,26,17,02,25.70
2009,07,26,17,03,25.80
2009,07,26,17,04,25.90
2009,07,26,17,05,25.90
2009,07,26,17,06,26.00
2009,07,26,17,07,26.00
2009,07,26,17,08,26.10
2009,07,26,17,09,26.10
2009,07,26,17,10,26.20
2009,07,26,17,11,26.20
2009,07,26,17,12,26.20
2009,07,26,17,13,26.30
2009,07,26,17,14,26.30
2009,07,26,17,15,26.30
2009,07,26,17,16,26.40
2009,07,26,17,17,26.50
2009,07,26,17,18,26.50
2009,07,26,17,19,26.60